Weather History for Fort Leonard Wood, MO

Change the Weather History Date:

Tuesday, January 8, 2013

  Actual Average Record
Temperature  
Mean Temperature 40 °F -  
Max Temperature 55 °F 39 °F 69 °F (2003)
Min Temperature 26 °F 27 °F 15 °F (1999)
Degree Days  
Heating Degree Days 24    
Moisture  
Dew Point 35 °F    
Average Humidity 74    
Maximum Humidity 100    
Minimum Humidity 24    
Precipitation  
Precipitation 0.06 in - - ()
Sea Level Pressure  
Sea Level Pressure 30.15 in    
Wind  
Wind Speed 7 mph (South)    
Max Wind Speed 13 mph    
Max Gust Speed 18 mph    
Visibility 10 miles    
Events Rain    
Averages and records for this station are not official NWS values.
T = Trace of Precipitation, MM = Missing Value Source: NWS Daily Summary

Daily Weather History Graph

Daily Weather History Graph

Search for Another Location

Airport:

Trip Planner

Search our weather history database for the weather conditions in past years. The results will help you decide how hot, cold, wet, or windy it might be!

Date:

Astronomy

Jan. 08, 2013 Rise Set
Actual Time 7:24 AM CST 5:07 PM CST
Civil Twilight 6:55 AM CST 5:35 PM CST
Nautical Twilight 6:22 AM CST 6:08 PM CST
Astronomical Twilight 5:50 AM CST 6:40 PM CST
Moon 3:57 AM CST (1/8) 2:09 PM CST (1/8)
Length of Visible Light 10h 40m
Length of Day
9h 42m
Waning Crescent, 13% of the Moon is Illuminated
Jan 8
Waning Crescent
Jan 11
New
Jan 18
First Quarter
Jan 26
Full
Feb 3
Last Quarter

Hourly Weather History & Observations

Time (CST) Temp. Windchill Dew Point Humidity Pressure Visibility Wind Dir Wind Speed Gust Speed Precip Events Conditions
12:55 AM 30.0 °F 24.1 °F 23.9 °F 78% 30.13 in 10.0 mi SE 5.8 mph - N/A   Mostly Cloudy
1:55 AM 31.5 °F 26.8 °F 24.4 °F 75% 30.13 in 10.0 mi South 4.6 mph - N/A   Partly Cloudy
2:55 AM 28.6 °F 20.7 °F 23.5 °F 81% 30.14 in 10.0 mi SSE 8.1 mph - N/A   Clear
3:55 AM 30.2 °F 25.4 °F 24.4 °F 79% 30.14 in 10.0 mi South 4.6 mph - N/A   Partly Cloudy
4:55 AM 31.1 °F 25.4 °F 24.4 °F 76% 30.15 in 10.0 mi South 5.8 mph - N/A   Scattered Clouds
5:55 AM 29.8 °F 24.9 °F 23.9 °F 79% 30.14 in 10.0 mi SSE 4.6 mph - N/A   Clear
6:55 AM 26.8 °F 19.3 °F 23.0 °F 86% 30.17 in 10.0 mi SSE 6.9 mph - N/A   Clear
7:55 AM 28.9 °F 21.9 °F 24.1 °F 82% 30.18 in 10.0 mi SSE 6.9 mph - N/A   Clear
8:55 AM 33.3 °F 26.4 °F 25.7 °F 74% 30.18 in 10.0 mi SE 8.1 mph - N/A   Clear
9:55 AM 42.3 °F 37.9 °F 25.7 °F 52% 30.19 in 10.0 mi South 6.9 mph - N/A   Clear
10:55 AM 47.8 °F - 24.3 °F 40% 30.16 in 10.0 mi South 9.2 mph - N/A   Clear
11:55 AM 50.5 °F - 24.4 °F 36% 30.14 in 10.0 mi SSW 6.9 mph - N/A   Clear
12:55 PM 52.5 °F - 23.0 °F 32% 30.11 in 10.0 mi South 10.4 mph - N/A   Scattered Clouds
1:55 PM 55.0 °F - 20.5 °F 26% 30.08 in 10.0 mi South 12.7 mph 18.4 mph N/A   Partly Cloudy
2:55 PM 55.0 °F - 19.0 °F 24% 30.08 in 10.0 mi South 9.2 mph 18.4 mph N/A   Partly Cloudy
3:55 PM 54.7 °F - 20.1 °F 26% 30.09 in 10.0 mi South 9.2 mph - N/A   Overcast
4:55 PM 52.3 °F - 32.5 °F 47% 30.09 in 10.0 mi South 10.4 mph 17.3 mph N/A   Overcast
5:55 PM 51.4 °F - 34.2 °F 52% 30.10 in 10.0 mi South 11.5 mph - N/A   Overcast
6:55 PM 49.6 °F - 34.3 °F 56% 30.12 in 10.0 mi South 6.9 mph - N/A   Overcast
7:55 PM 50.5 °F - 37.8 °F 62% 30.13 in 10.0 mi South 6.9 mph - N/A   Overcast
8:50 PM 50.0 °F - 39.2 °F 66% 30.15 in 10.0 mi SSW 6.9 mph - N/A Rain Light Rain
8:55 PM 50.7 °F - 39.9 °F 67% 30.15 in 10.0 mi Variable 4.6 mph - 0.00 in Rain Light Rain
9:27 PM 48.2 °F - 42.8 °F 82% 30.16 in 10.0 mi South 5.8 mph - N/A   Overcast
9:29 PM 48.2 °F - 42.8 °F 82% 30.16 in 10.0 mi South 5.8 mph - N/A   Drizzle
9:39 PM 46.4 °F 43.5 °F 42.8 °F 87% 30.16 in 10.0 mi South 5.8 mph - N/A   Overcast
9:55 PM 47.5 °F - 42.3 °F 82% 30.16 in 10.0 mi South 8.1 mph - 0.00 in   Mostly Cloudy
9:56 PM 48.2 °F - 42.8 °F 82% 30.16 in 10.0 mi South 9.2 mph - N/A Rain Light Rain
10:53 PM 44.6 °F 40.7 °F 44.6 °F 100% 30.17 in 10.0 mi Variable 6.9 mph - N/A Rain Light Rain
10:55 PM 45.5 °F 41.8 °F 45.3 °F 99% 30.17 in 10.0 mi SSW 6.9 mph - 0.04 in Rain Light Rain
11:15 PM 46.4 °F 43.5 °F 46.4 °F 100% 30.18 in 9.0 mi South 5.8 mph - N/A   Light Drizzle
11:18 PM 46.4 °F 42.4 °F 46.4 °F 100% 30.18 in 8.0 mi South 8.1 mph - N/A   Light Drizzle
11:20 PM 46.4 °F 42.4 °F 46.4 °F 100% 30.18 in 7.0 mi South 8.1 mph - N/A   Light Drizzle
11:22 PM 46.4 °F 41.9 °F 46.4 °F 100% 30.18 in 7.0 mi SSW 9.2 mph - N/A   Light Drizzle
11:30 PM 46.4 °F 43.5 °F 46.4 °F 100% 30.19 in 7.0 mi Variable 5.8 mph - N/A Rain Light Rain
11:31 PM 46.4 °F 43.5 °F 46.4 °F 100% 30.19 in 7.0 mi Variable 5.8 mph - N/A Rain Light Rain
11:39 PM 46.4 °F 43.5 °F 46.4 °F 100% 30.19 in 10.0 mi SSW 5.8 mph - N/A   Light Drizzle
11:47 PM 46.4 °F 42.9 °F 46.4 °F 100% 30.19 in 8.0 mi South 6.9 mph - N/A Rain Light Rain
11:55 PM 46.0 °F 43.1 °F 46.0 °F 100% 30.20 in 7.0 mi SSW 5.8 mph - 0.02 in   Light Drizzle